Location: Unspecified
(38.0989°N, 0.6729°W)
Time: 20:56:20
(UTC+02:00)

Tiangong 1 - Visible Passes

Search period start: 25 June 2017 00:00
Search period end: 05 July 2017 00:00
Orbit: 321 x 344 km, 42.8° (Epoch: 25 June)

Date Brightness Start Highest point End Pass type
(mag) Time Alt. Az. Time Alt. Az. Time Alt. Az.
25 Jun 2.8 00:01:01 10° WNW 00:03:17 28° N 00:03:17 28° N visible
25 Jun 2.5 22:44:34 10° WNW 22:47:09 32° N 22:49:43 10° ENE visible
26 Jun 3.5 00:20:31 10° WNW 00:21:43 20° NW 00:21:43 20° NW visible
26 Jun 2.7 23:04:11 10° WNW 23:06:42 29° N 23:08:51 12° ENE visible
27 Jun 4.1 00:39:50 10° WNW 00:40:00 11° WNW 00:40:00 11° WNW visible
27 Jun 2.3 23:23:36 10° WNW 23:26:12 33° N 23:27:01 27° NE visible
28 Jun 2.6 22:07:11 10° WNW 22:09:43 29° N 22:12:13 10° ENE visible
28 Jun 1.8 23:42:50 10° WNW 23:45:06 45° NNW 23:45:06 45° NNW visible
29 Jun 2.3 22:26:31 10° WNW 22:29:08 33° N 22:31:43 10° ENE visible
30 Jun 3.2 00:02:03 10° WNW 00:03:08 21° WNW 00:03:08 21° WNW visible
30 Jun 1.3 22:45:40 10° WNW 22:48:26 53° NNE 22:50:01 21° E visible
01 Jul 0.7 23:04:47 10° WNW 23:07:35 67° SSW 23:07:59 56° SSE visible
02 Jul 2.5 23:24:10 10° W 23:25:56 23° SW 23:25:56 23° SW visible
03 Jul 0.8 22:07:22 10° WNW 22:10:11 70° SSW 22:12:47 11° ESE visible
04 Jul 2.3 22:26:37 10° W 22:29:03 26° SSW 22:30:44 15° SSE visible
